Regional Weather Roundup
Issued by NWS Newport/Morehead, NC

Current Version | Previous Version | Text Only | Print | Product List | Glossary On
Versions: 1 2 3 4 5 6 7 8 9 10 11 12 13 14 15 16 17 18 19 20 21 22 23 24 25 26 27 28 29 30 31 32 33 34 35 36 37 38 39 40 41 42 43 44 45 46 47 48 49 50
000
ASUS42 KMHX 180410
RWRMHX
WEATHER ROUNDUP FOR EASTERN NORTH CAROLINA
NATIONAL WEATHER SERVICE NEWPORT/MOREHEAD CITY NC
1100 PM EST WED DEC 17 2014

NOTE: "FAIR" INDICATES FEW OR NO CLOUDS BELOW 12,000 FEET
WITH NO SIGNIFICANT WEATHER AND/OR OBSTRUCTIONS TO VISIBILITY

NCZ015>017-031-032-045>047-102-103-180500-
NORTH COAST

CITY           SKY/WX    TMP DP  RH WIND       PRES   REMARKS
EDENTON          N/A     40  39  95 CALM      30.05S
ELIZABETH CITY MOCLDY    44  37  76 SW7       30.04S
KITTY HAWK     MOCLDY    46  42  86 SW3       30.03S
MANTEO         MOCLDY    47  41  82 W5        30.05S

$$

NCZ045>047-081-094-103-104-180500-
CENTRAL COAST

CITY           SKY/WX    TMP DP  RH WIND       PRES   REMARKS
FRISCO         MOCLDY    49  46  90 W6        30.06S
SWANQUARTER      N/A     46 N/A N/A CALM      30.03S

$$

NCZ095-097-098-100-101-180500-
SOUTHERN COAST

CITY           SKY/WX    TMP DP  RH WIND       PRES   REMARKS
BEAUFORT       MOCLDY    50  47  89 W5        30.08S
CEDAR ISLAND     N/A     48 N/A N/A SW5       30.12S
JACKSONVILLE   CLOUDY    44  40  85 W7        30.09R
PINEY ISLAND   NOT AVBL
WILMINGTON     MOCLDY    43  41  93 CALM      30.09F


$$

NCZ011>013-027>030-043-044-078>080-089-090>093-098-180500-
COASTAL PLAIN

CITY           SKY/WX    TMP DP  RH WIND       PRES   REMARKS
AHOSKIE        MOCLDY    39  36  89 CALM      30.06S
CLINTON        MOCLDY    41  40  98 CALM      30.08F
ELIZABETHTOWN  PTCLDY    42  39  91 CALM      30.09S
GOLDSBORO      CLOUDY    45  44  99 CALM      30.06S
GREENVILLE     CLOUDY    41  39  93 CALM      30.08S
HAVELOCK       NOT AVBL
KENANSVILLE    CLOUDY    40  39  95 CALM      30.09S
KINSTON        CLOUDY    43  40  88 SW5       30.08S
NEW BERN       CLOUDY    48  40  73 SW6       30.09R
RICHLANDS      CLOUDY    41  37  87 CALM      30.09S
ROCKY MOUNT    MOCLDY    41  36  82 CALM      30.07S
WASHINGTON     CLOUDY    41  39  91 CALM      30.07R
WHITEVILLE     PTCLDY    41  39  91 CALM      30.10R

$$

AMZ130-135-150-152-154-156-158-170-250-252-270-ANZ085-086-088-633-658-670-180500-
MARINE OBSERVATIONS

STATION/POSITION TIME  TEMP    WIND        PRES    WAVE   SWELL
                       AIR SEA DIR/SP/G            HT/PER HT/PER
                 (UTC) (F)     (DEG/KT/KT) (MB)    (FT/S) (FT/S)
CHESAPEAKE LIGHT 0300   50     250/ 15/ 15 1016.9
64 E VA BEACH    0400   54 54  270/ 12/ 14 1015.8    2/ 8   2/ 8
DUCK             0400   49 49  250/  7/  9 1016.1
2 E DUCK         0400      49                N/A     1/ 8
10 NE DUCK       0400      51                N/A     2/ 8
OREGON INLET     0400   50 51  230/  6/  7 1017.3
13E OREGON INLT  0400      53                N/A     2/ 8
HATTERAS CG      0400   52 55  260/  7/ 10 1018.3
DIAMOND BUOY     0400   57                 1018.2    3/ 7
17 S OCRACOKE    NOT AVBL
CAPE LOOKOUT     0300   55     260/  8/  9 1018.3
BEAUFORT LAB     0400   52 53  260/  2/  4 1017.4
30 SE NEW RIVER  0400   58 61  270/ 12/ 14 1019.3    3/ 6   2/ 6
5 SE WRIGHTSVLE  0300   51 55  260/ 10/ 12 1019.0
225 S CAPE HAT   0338   68 72  280/  8/ 10 1019.4    5/ 7   5/ 7
41 SE CHARLESTON 0400   61 73  280/  8/ 10 1019.4    2/10   2/10

$$



USA.gov is the U.S. government's official web portal to all federal, state and local government web resources and services.